Vorticity
nan nan nan nan nan nan nan nan nan nan nan nan nan nan nan nan nan nan nan nan nan nan nan nan nan nan nan nan nan nan nan nan nan nan nan nan nan nan nan nan nan nan nan nan nan nan nan nan nan nan nan nan nan nan nan nan nan nan nan nan nan nan nan nan nan nan nan nan nan nan nan nan nan nan nan nan nan nan nan nan nan nan nan nan nan nan nan nan nan nan nan nan nan nan nan nan nan nan nan nan nan nan nan
nan 8 9 8 7 7 6 6 6 6 6 6 7 8 7 5 4 5 9 10 9 8 7 5 4 3 3 3 4 4 5 6 7 8 8 6 5 4 1 -0 1 1 2 2 3 4 6 7 6 6 6 6 6 6 6 6 6 6 6 5 5 5 11 17 13 9 7 6 5 4 3 3 3 4 4 4 5 5 5 5 5 5 5 5 5 5 4 3 3 3 3 4 6 6 6 6 5 6 6 5 4 3 nan
nan 9 8 7 7 7 7 7 7 7 7 8 7 8 7 6 6 5 6 6 6 6 5 4 4 3 3 3 3 4 4 5 7 8 8 7 5 3 1 -0 1 2 3 3 3 3 4 6 7 7 6 6 6 6 6 6 6 6 6 5 5 7 11 14 11 8 6 5 5 4 4 4 4 5 5 5 5 5 5 5 6 6 5 5 5 5 4 3 3 2 2 3 5 6 6 6 6 7 6 5 4 3 nan
nan 10 8 6 7 7 8 8 8 8 8 8 8 7 6 8 8 6 6 5 5 4 4 4 3 3 3 3 3 4 4 5 6 7 7 7 5 3 2 1 2 3 3 3 3 3 3 5 6 7 6 6 6 6 6 6 6 6 5 6 5 7 13 15 10 6 5 5 5 4 4 5 5 6 7 6 5 4 4 5 6 7 6 6 5 5 4 4 3 3 2 2 3 5 6 6 7 7 7 6 5 4 nan
nan 10 8 6 7 7 8 9 9 9 9 8 7 5 5 8 10 9 6 4 4 3 4 3 3 3 3 3 4 4 4 5 5 6 7 6 5 3 2 2 3 3 3 3 3 3 4 6 7 7 7 6 5 6 6 6 6 6 5 6 6 9 14 12 7 5 5 5 5 5 5 5 5 5 6 6 5 4 4 5 7 8 7 7 6 5 5 5 4 4 3 2 2 3 5 6 7 8 7 6 5 5 nan
nan 8 8 6 6 7 8 9 9 9 8 7 7 5 5 7 10 10 7 4 4 4 4 3 3 3 3 3 4 4 4 5 5 6 6 6 5 4 3 3 3 3 3 3 3 4 5 6 7 8 8 7 6 6 6 6 6 6 5 6 7 9 12 10 6 4 4 5 6 6 6 5 5 5 5 6 5 4 4 4 6 7 8 7 6 6 6 6 5 5 5 3 2 2 4 5 6 7 7 6 6 6 nan
nan 8 7 6 5 6 6 7 7 7 7 8 9 7 5 7 8 9 7 5 5 5 4 3 3 3 3 3 4 4 4 5 5 6 6 6 5 4 4 4 3 3 3 4 4 5 6 7 7 8 8 7 6 6 6 6 6 5 5 7 9 10 11 9 5 4 4 5 6 6 7 7 6 4 4 5 5 5 4 4 5 6 6 6 7 7 7 7 7 7 6 6 4 3 3 4 5 6 7 7 6 6 nan
nan 12 8 6 5 5 4 4 4 5 5 8 11 9 7 7 7 7 6 5 5 5 4 4 3 3 3 3 3 4 4 4 5 6 6 6 5 4 4 3 3 3 3 4 5 6 6 7 7 8 7 7 7 6 6 6 6 6 6 7 10 12 11 8 5 3 4 5 6 7 6 6 7 6 6 6 6 5 5 4 4 4 5 5 6 6 6 7 7 7 8 8 7 6 5 4 4 5 5 6 6 7 nan
nan 15 11 7 5 4 4 3 3 3 3 7 11 10 8 7 7 7 6 5 5 5 5 4 4 3 3 3 3 4 4 4 5 6 6 6 5 5 4 4 3 3 4 4 5 6 6 6 7 7 8 8 8 7 5 5 6 6 6 6 7 10 10 7 4 2 4 5 6 7 7 5 7 8 9 7 6 6 5 5 4 4 4 4 3 4 4 5 5 6 7 8 7 7 6 5 5 4 4 5 5 6 nan
nan 16 15 10 6 4 4 3 3 4 4 6 7 7 6 6 8 10 8 6 5 5 5 5 4 4 4 3 3 3 3 4 4 5 6 6 6 6 4 3 3 4 4 4 5 6 6 6 7 8 8 8 8 7 5 5 6 6 6 7 7 8 8 6 4 3 3 5 7 8 7 5 6 8 9 7 6 6 6 5 5 4 3 3 3 3 3 3 3 4 5 5 6 6 6 5 5 5 4 4 4 4 nan
nan 13 16 13 8 5 4 4 4 4 5 6 5 5 4 4 6 8 9 9 6 6 5 5 4 4 4 3 3 3 3 4 4 4 5 6 6 6 4 4 4 4 4 4 5 5 5 6 7 8 9 9 8 6 5 6 6 6 7 7 8 9 9 7 5 4 4 6 8 8 7 5 5 7 8 6 5 6 6 6 5 4 4 3 3 3 3 3 3 3 3 3 3 4 4 4 4 4 4 4 3 3 nan
nan 9 15 15 11 7 6 5 5 6 6 6 5 5 3 3 4 5 9 10 8 7 6 5 5 5 4 4 3 3 3 4 4 4 5 7 7 6 4 4 4 4 5 5 4 3 2 5 7 8 9 9 7 6 5 6 7 6 8 8 8 9 9 7 6 5 5 6 7 8 7 5 4 6 6 5 5 6 6 6 6 5 4 4 4 4 4 4 4 3 3 2 2 2 3 3 3 3 3 3 3 3 nan
nan 4 7 13 17 12 7 6 6 6 6 6 6 5 5 4 4 4 7 8 9 8 6 5 5 5 5 4 4 4 4 4 4 4 6 7 7 6 5 4 4 5 5 4 2 -0 0 5 7 8 8 8 7 6 6 6 6 6 7 9 7 8 8 7 6 5 6 7 7 8 7 4 2 3 3 3 4 5 7 7 7 6 5 4 4 4 5 5 5 4 3 3 2 3 3 3 3 3 3 3 3 3 nan
nan 2 2 8 14 16 11 7 7 7 6 6 6 6 5 5 5 5 6 7 7 7 6 6 6 5 5 5 4 4 4 4 4 5 6 8 8 7 5 4 5 5 4 1 -1 0 4 7 7 7 7 8 8 7 6 5 6 7 6 8 7 7 7 7 6 6 7 7 7 7 6 3 2 2 2 2 4 4 6 9 9 8 6 4 4 4 5 5 5 5 4 4 3 3 3 4 4 4 3 4 4 3 nan
nan 2 3 5 9 15 15 11 9 7 6 6 6 6 6 6 6 6 6 6 7 7 6 6 6 5 5 5 5 5 4 4 5 5 6 8 8 8 6 5 5 5 1 -3 1 4 7 7 7 7 7 8 8 8 7 5 6 8 7 7 6 6 6 6 6 6 7 8 8 7 5 4 3 3 2 3 4 4 6 9 10 9 7 5 4 4 4 5 4 4 4 4 4 4 4 4 5 5 5 5 5 5 nan
nan 4 3 5 8 13 16 13 10 8 6 7 7 8 8 7 7 7 7 7 7 7 7 6 5 5 5 5 6 5 6 6 6 6 6 8 8 8 7 5 4 2 -2 -1 4 6 7 7 6 6 7 7 8 8 8 7 7 9 8 6 6 6 6 6 5 6 8 9 8 8 6 4 4 4 4 4 4 5 6 8 9 8 8 7 4 4 4 4 4 4 4 4 4 5 5 5 6 6 6 6 6 6 nan
nan 7 5 5 7 10 12 10 8 6 6 8 10 11 10 9 8 7 8 7 8 8 8 6 5 5 5 5 5 2 5 9 9 9 9 9 8 8 7 5 1 -2 -1 4 6 7 7 7 6 6 7 7 7 8 8 9 10 9 8 6 5 5 6 6 5 6 8 9 10 10 9 6 5 5 5 5 5 5 5 6 5 6 9 8 5 4 3 3 3 4 4 4 4 5 5 6 6 7 8 8 8 8 nan
nan 8 7 7 7 9 11 8 5 4 4 6 8 10 11 11 10 9 9 8 8 9 8 7 5 5 5 4 2 -0 3 9 9 10 12 11 9 8 6 2 -1 -1 3 7 8 7 7 6 7 7 7 6 7 8 9 10 12 10 7 5 5 5 6 6 6 6 7 8 10 11 10 8 6 5 5 6 6 5 5 5 3 5 8 7 5 5 4 3 4 4 4 4 5 5 5 6 7 8 8 8 8 7 nan
nan 8 8 8 9 11 11 9 7 5 4 4 6 7 10 12 13 13 10 8 8 9 8 7 6 6 6 3 1 0 4 7 8 8 11 11 10 8 4 1 1 3 6 8 8 7 6 6 6 7 7 7 7 8 9 11 13 11 8 5 5 4 5 6 6 6 6 7 8 9 9 8 7 6 6 6 6 6 6 4 3 4 5 4 4 4 4 4 4 4 5 5 5 5 6 6 6 7 8 7 6 6 nan
nan 8 8 8 10 11 11 11 10 8 6 4 5 7 10 14 16 17 12 9 9 9 9 7 6 6 4 2 2 4 6 7 6 7 8 8 8 6 4 4 5 6 8 9 8 6 5 6 6 6 6 7 8 8 9 11 13 13 9 6 5 4 5 5 5 6 6 6 6 6 6 6 6 6 6 6 6 6 7 5 4 4 3 2 3 3 4 4 4 4 5 5 6 7 7 6 6 6 6 6 5 4 nan
nan 7 8 8 9 10 9 11 10 8 7 6 5 7 11 16 20 21 16 11 10 10 9 5 3 4 5 5 6 6 6 6 6 6 6 6 6 5 5 6 7 7 9 8 7 6 6 6 6 6 6 7 8 8 9 10 12 13 11 8 6 5 5 5 5 6 5 5 5 4 3 3 4 5 5 6 6 6 6 5 5 4 3 2 3 4 4 4 4 4 5 6 7 7 7 7 6 5 5 4 3 3 nan
nan 8 8 8 8 8 8 9 8 8 8 8 5 6 9 13 18 22 18 11 11 12 9 3 1 3 7 8 7 6 5 6 6 5 5 6 6 5 5 6 6 7 8 7 6 7 7 6 6 7 6 6 7 8 11 10 10 12 12 10 8 6 5 5 5 5 5 5 5 5 3 3 4 4 4 5 5 5 5 6 6 5 4 3 3 3 4 4 4 4 5 6 7 7 7 6 5 5 4 3 3 2 nan
nan 8 8 8 8 8 7 7 7 7 9 9 7 6 7 10 14 18 17 11 9 10 8 4 3 4 7 8 7 6 6 6 6 5 5 5 5 5 5 5 5 6 6 6 6 7 8 7 7 7 6 6 7 8 11 12 10 11 12 11 9 7 5 5 4 4 4 6 6 6 5 4 4 3 4 4 5 5 5 6 6 6 5 5 4 4 4 3 4 4 5 5 6 6 6 5 5 4 3 3 3 3 nan
nan 7 7 7 7 7 7 7 6 7 10 10 8 7 8 9 10 13 14 12 10 9 7 4 3 5 7 8 7 6 7 7 6 5 5 5 5 6 6 5 4 4 5 6 6 7 7 7 7 7 7 6 7 8 11 13 12 11 12 12 10 8 6 5 4 4 4 6 6 7 6 5 4 4 5 5 5 4 5 5 6 7 7 6 5 4 4 3 3 4 4 6 6 6 5 4 4 3 3 3 3 3 nan
nan 6 6 6 6 7 6 6 6 7 8 9 8 8 8 10 10 11 10 10 10 12 10 6 5 5 7 7 6 6 7 7 6 5 5 6 6 6 6 6 3 3 4 5 5 6 7 8 7 7 7 7 7 8 10 12 12 11 12 12 11 9 7 6 4 3 3 5 6 7 7 5 5 5 6 6 5 5 6 6 7 7 7 6 5 5 4 4 4 4 4 6 6 6 5 4 3 3 2 2 3 3 nan
nan 6 5 6 6 6 6 6 6 6 7 8 8 8 9 10 11 11 9 8 9 11 13 12 9 8 7 7 5 5 5 6 7 6 6 7 7 6 6 6 4 3 3 3 4 5 7 7 7 7 7 7 7 8 10 11 12 12 12 13 12 10 8 6 5 4 3 4 5 6 6 6 6 6 6 6 6 6 8 7 7 6 6 6 5 5 5 4 4 4 5 5 6 6 5 4 3 3 2 2 2 3 nan
nan 9 7 6 6 6 7 7 7 7 7 7 7 8 8 8 8 9 9 8 8 8 11 12 11 10 9 9 6 5 4 5 7 7 7 7 7 7 6 6 5 5 3 2 3 5 6 7 7 7 7 7 7 7 10 13 12 11 12 13 12 11 9 7 6 4 4 3 4 5 6 7 7 7 7 7 7 8 8 8 7 6 5 5 5 5 5 5 4 4 5 6 6 6 5 4 3 3 3 3 3 4 nan
nan 11 11 10 8 7 7 7 8 8 8 7 7 7 8 7 7 6 6 6 7 8 9 8 8 9 10 10 10 7 4 5 6 7 6 6 7 8 8 6 6 6 5 3 4 4 5 6 7 6 6 6 6 7 9 13 12 11 11 12 13 12 10 9 7 6 4 3 3 4 6 7 8 8 8 8 9 9 8 7 6 5 4 4 4 5 5 5 5 4 5 6 6 6 5 4 4 3 3 4 4 5 nan
nan 11 13 14 13 10 8 7 7 8 9 8 7 6 7 8 8 8 8 7 6 7 8 9 9 9 9 10 11 10 7 7 7 6 5 4 6 8 8 7 7 7 7 5 5 5 5 6 6 6 6 6 6 6 8 12 13 11 10 11 12 12 11 10 9 7 5 4 4 4 5 6 7 8 9 9 9 9 6 5 5 5 4 4 4 5 5 4 4 4 4 5 6 6 5 5 4 4 4 5 5 6 nan
nan 8 9 13 15 15 12 8 8 7 7 8 7 7 7 7 8 9 10 11 10 8 8 9 10 9 8 8 9 10 9 8 8 8 5 4 5 6 7 7 7 7 7 6 6 7 8 7 6 5 6 7 6 6 6 10 13 12 10 10 11 12 12 11 10 9 8 6 4 4 4 5 6 8 9 10 9 7 4 4 4 4 4 4 5 6 5 4 4 4 4 5 6 6 6 5 5 5 5 6 7 7 nan
nan 7 6 8 11 15 15 13 10 8 7 7 6 6 7 7 7 7 8 9 10 11 9 8 8 8 7 7 8 8 9 8 8 10 9 6 5 5 5 5 6 6 7 7 7 8 10 10 8 6 6 7 7 7 7 8 12 14 11 10 10 11 11 11 10 10 9 8 6 5 4 4 5 6 9 10 9 8 5 4 4 4 4 5 6 6 5 4 4 4 4 5 6 6 6 5 5 5 6 6 7 8 nan
nan 8 7 7 7 8 11 14 14 13 10 8 8 7 8 8 7 7 7 8 8 8 8 8 8 8 8 7 7 8 10 9 7 9 10 9 8 7 7 6 5 5 6 6 7 7 9 10 9 7 7 6 6 6 7 8 10 13 14 11 10 10 11 11 10 10 10 9 8 7 6 5 5 5 7 9 10 10 7 4 4 4 5 6 6 6 5 4 4 4 5 5 6 6 6 5 5 6 6 7 7 7 nan
nan 8 7 6 6 6 7 9 11 13 13 12 11 11 11 11 10 9 9 9 8 8 7 7 7 8 8 7 7 8 9 9 7 8 9 8 9 9 9 8 6 5 6 6 6 7 7 8 9 8 8 7 5 5 6 7 8 10 14 14 13 11 10 10 10 10 10 10 9 9 8 7 6 5 5 7 9 10 9 8 7 7 7 7 7 6 5 4 4 5 5 5 6 6 6 5 5 5 6 6 6 6 nan
nan 8 8 6 6 5 6 6 6 8 10 11 12 12 12 12 12 11 10 10 10 10 9 9 8 8 8 8 8 8 8 9 8 7 7 7 8 9 10 9 7 7 7 6 6 6 7 8 9 9 9 8 7 6 5 6 7 8 11 13 13 13 11 10 10 10 9 9 9 8 9 8 7 6 5 5 7 8 10 12 11 10 9 8 7 7 6 5 5 5 5 5 5 6 6 6 6 6 5 6 6 6 nan
nan 9 9 8 7 6 5 5 5 5 5 7 7 8 9 11 12 12 11 11 12 12 13 12 10 9 8 8 8 7 8 8 8 8 7 6 7 8 9 8 7 8 8 7 6 6 7 7 8 9 9 9 8 7 6 6 7 7 10 12 12 13 13 12 12 12 10 9 8 8 8 8 7 6 5 5 5 6 8 11 12 12 11 9 8 8 8 8 7 6 5 5 5 6 6 6 6 6 6 5 5 5 nan
nan 9 10 10 10 9 8 6 5 3 2 3 3 3 5 8 10 11 11 11 11 12 14 14 13 12 11 10 9 8 8 8 8 8 9 9 9 9 9 9 8 7 8 8 8 7 6 6 6 8 9 9 8 8 6 6 6 7 8 11 12 13 15 16 15 15 13 11 9 9 8 8 8 7 6 5 5 5 7 9 10 12 12 11 11 10 10 9 8 7 6 5 5 6 6 6 6 6 6 5 5 5 nan
nan 8 9 9 10 10 11 10 9 6 4 2 0 -1 1 3 5 7 9 9 8 8 9 11 13 13 14 13 12 11 10 9 9 9 9 10 11 11 11 11 9 8 7 8 8 7 6 5 5 6 7 8 8 8 7 7 7 6 7 8 10 11 12 14 16 17 18 16 13 11 10 9 9 9 8 7 6 6 7 8 9 12 13 14 14 12 11 9 8 6 6 5 5 5 5 5 5 5 5 5 5 5 nan
nan 8 8 8 9 9 10 11 11 10 10 8 6 4 3 2 1 3 6 7 6 5 5 5 7 9 11 12 12 12 11 11 10 10 10 10 10 10 10 11 10 9 8 7 7 7 6 6 5 5 6 7 7 7 8 7 8 6 6 7 7 8 9 10 12 14 18 21 19 15 11 10 9 9 9 9 8 8 8 9 10 12 13 14 14 13 10 8 7 6 5 4 5 5 5 5 5 5 5 5 5 4 nan
nan 7 8 8 8 8 8 8 9 10 12 12 13 12 11 9 5 3 4 5 4 3 4 4 4 4 6 8 9 9 9 9 10 10 11 11 10 9 9 9 9 8 8 7 7 7 7 7 7 6 6 7 7 7 7 7 8 7 6 6 7 7 7 8 9 10 13 18 22 22 16 12 10 9 9 9 9 9 9 10 11 12 13 12 11 9 7 5 5 4 3 3 4 4 6 6 6 6 5 5 4 4 nan
nan 7 7 8 8 7 7 7 8 9 10 12 13 13 12 12 10 7 6 6 6 6 6 5 5 5 5 5 5 5 4 4 6 8 10 11 10 10 10 9 9 8 8 7 7 7 8 9 9 8 7 7 7 8 7 8 8 7 6 6 6 6 6 7 8 7 8 12 17 22 23 16 12 10 9 9 9 9 10 11 12 12 13 11 8 6 3 3 2 2 2 3 4 5 6 7 7 6 6 5 5 4 nan
nan 7 7 7 7 6 5 6 8 10 10 10 11 11 11 10 10 9 8 9 9 9 8 8 6 6 6 6 5 5 3 2 1 1 3 7 9 10 11 10 9 9 9 8 6 7 8 9 10 10 8 7 7 7 7 8 8 7 6 6 6 5 5 6 6 6 6 8 11 16 23 21 16 12 10 9 8 8 8 9 10 12 13 12 9 6 3 2 2 2 2 3 4 5 6 6 6 6 6 6 5 5 nan
nan 8 7 7 7 6 6 6 8 9 9 10 10 10 10 9 9 8 8 9 9 10 10 10 8 6 6 7 7 8 8 7 5 2 1 3 5 7 9 10 10 10 10 9 7 7 8 9 10 9 10 9 8 7 7 7 7 6 6 7 7 7 6 5 5 6 6 6 8 10 17 21 18 15 13 10 9 8 7 7 8 9 10 11 11 9 7 5 5 5 5 5 5 6 6 6 6 6 6 6 6 6 nan
nan 8 8 7 7 7 7 7 8 8 8 9 9 9 9 9 9 9 8 8 8 9 10 11 9 8 7 7 8 9 11 12 12 11 8 5 5 6 7 8 9 9 10 10 9 9 9 9 9 9 9 10 9 9 7 5 4 2 3 7 9 10 8 6 5 5 6 5 6 7 10 18 20 18 15 13 11 9 7 7 6 6 7 8 9 10 10 9 9 9 9 9 9 8 7 6 6 5 6 6 6 6 nan
nan 8 7 8 7 8 8 8 7 8 8 8 8 8 9 9 9 9 8 8 8 8 9 11 10 9 8 7 8 8 10 11 13 14 13 10 8 8 8 8 9 9 9 10 10 9 9 9 9 9 9 9 10 10 10 7 4 1 0 4 8 11 11 8 6 5 5 5 5 6 7 10 16 20 19 17 16 13 11 8 6 5 5 5 6 7 8 10 11 12 12 12 11 11 10 8 7 6 5 6 6 6 nan
nan 7 7 7 8 9 9 8 7 7 7 8 8 8 9 10 9 8 8 8 8 8 8 10 11 10 9 8 8 8 9 10 11 11 10 9 8 8 8 9 10 10 9 9 9 10 9 9 9 9 9 8 9 10 12 12 11 9 7 5 7 10 11 10 8 7 6 6 6 7 7 6 8 13 18 19 20 20 17 13 10 7 6 5 5 6 7 9 11 13 13 12 12 11 11 10 8 7 6 6 6 6 nan
nan 7 7 7 8 9 10 9 8 7 7 7 7 7 9 10 10 9 8 7 7 7 8 9 10 10 10 9 8 9 9 10 10 9 8 7 7 6 6 8 10 10 9 9 9 10 10 9 9 9 8 8 8 8 10 13 15 16 15 12 8 8 9 10 9 9 7 7 7 7 8 7 6 6 10 14 16 19 21 19 15 12 10 8 7 7 7 9 12 13 14 13 12 10 9 8 8 7 6 7 6 6 nan
nan 8 7 7 7 8 10 10 9 8 7 7 7 7 8 9 10 10 9 8 8 8 8 8 8 9 10 10 9 9 10 10 10 8 7 8 8 8 8 9 10 9 9 9 9 9 9 9 9 9 8 8 8 8 8 11 13 14 15 14 11 9 8 9 9 9 9 8 8 7 8 8 7 5 5 8 10 12 16 19 19 18 15 13 11 10 8 9 11 14 15 15 12 9 6 6 6 6 6 6 7 7 nan
nan 9 9 7 7 7 9 10 10 9 8 7 7 7 7 7 7 8 9 9 9 10 10 9 8 7 7 8 9 9 10 10 10 8 7 7 9 11 12 11 10 9 9 9 9 9 8 8 8 8 9 9 9 9 8 9 10 11 12 12 12 11 10 9 8 7 8 7 7 7 6 7 8 7 5 6 7 9 11 15 19 21 21 18 16 14 10 9 11 13 15 15 12 9 6 5 5 5 5 6 6 7 nan
nan 11 10 9 9 8 8 8 9 10 9 8 7 7 7 6 6 5 6 7 8 9 10 11 10 8 6 6 8 9 9 9 10 9 7 6 8 10 11 12 11 11 10 10 10 10 8 7 7 7 8 9 9 9 9 8 8 8 9 10 11 12 12 9 8 6 6 5 5 4 4 3 5 6 7 6 6 7 8 10 13 18 22 23 21 20 17 11 10 12 14 14 13 10 7 6 5 4 4 5 6 7 nan
nan 11 11 11 10 9 7 8 9 10 9 8 7 8 8 8 7 6 6 5 6 7 9 11 11 11 8 7 8 9 9 8 8 7 7 7 7 8 9 11 12 12 11 11 11 11 9 7 7 6 6 7 9 10 9 8 7 6 6 7 7 8 8 10 10 8 7 7 5 3 2 -0 2 5 8 7 6 7 7 7 8 10 14 21 24 24 25 21 16 12 12 13 13 11 10 8 6 5 5 5 5 6 nan
nan 11 11 11 10 10 9 9 8 8 9 10 10 10 10 9 8 8 8 8 6 6 7 9 11 12 11 8 9 10 10 8 7 4 6 9 8 7 7 7 9 10 12 12 12 12 12 10 9 8 5 5 7 8 8 8 7 6 6 6 5 5 6 10 11 11 10 10 9 7 3 1 0 3 6 5 4 5 6 6 6 7 8 12 16 19 20 23 23 19 13 12 11 12 12 11 10 9 7 5 5 6 nan
nan 12 12 11 11 11 11 10 9 8 8 10 11 12 11 10 9 9 10 10 9 7 6 6 8 10 10 10 10 12 12 9 7 4 4 7 9 9 8 6 7 9 11 10 11 12 12 11 12 13 10 5 4 5 6 7 7 6 6 5 5 7 9 8 9 10 11 12 12 13 12 9 4 2 2 3 3 2 3 3 5 6 7 7 8 10 13 15 17 19 18 14 11 10 11 13 13 12 9 7 6 6 nan
nan 13 13 12 11 11 11 10 10 9 9 9 10 10 10 9 9 8 9 10 10 9 8 6 6 6 7 8 10 13 14 11 9 5 4 6 7 9 9 9 8 8 8 9 9 11 11 11 11 13 15 11 7 4 3 4 5 6 7 5 6 8 9 8 8 8 9 11 12 14 17 16 12 7 3 4 4 4 3 2 2 4 6 6 7 8 10 14 15 16 17 15 13 11 11 11 12 13 11 9 7 6 nan
nan 12 14 14 13 12 11 11 11 11 10 10 9 9 9 9 9 9 8 8 9 9 9 8 7 6 6 7 7 9 12 13 11 8 6 6 7 7 8 9 8 9 9 9 8 10 11 12 11 13 16 16 12 8 5 3 3 6 8 8 9 10 9 8 7 7 7 9 10 12 13 14 15 14 10 9 8 8 6 4 2 1 2 4 5 6 8 12 17 17 18 18 17 14 12 10 11 12 12 11 9 7 nan
nan 10 12 13 13 13 11 12 12 12 11 9 9 9 9 10 10 10 9 9 8 7 7 8 8 7 7 8 7 6 7 10 11 10 8 7 6 4 5 7 8 9 9 9 8 8 9 13 14 15 16 18 14 12 11 8 6 7 9 12 10 9 8 8 8 8 8 9 9 11 11 12 14 17 16 12 10 10 9 8 6 3 2 3 4 5 7 9 13 15 17 21 21 18 16 14 10 10 10 11 9 8 nan
nan 9 9 9 11 14 14 14 13 12 10 9 9 9 8 8 8 7 8 11 11 10 8 8 8 6 5 7 8 7 6 7 8 8 9 8 7 4 4 6 8 8 7 8 9 8 8 11 13 14 16 18 14 13 14 14 12 9 10 13 11 9 7 8 8 9 9 9 9 10 12 14 15 17 16 13 12 11 10 9 8 7 6 4 4 5 7 7 8 10 12 17 22 24 21 18 14 11 10 9 9 8 nan
nan 6 8 9 10 14 16 16 15 15 13 11 10 8 8 7 7 7 8 8 9 11 9 9 10 10 6 5 7 8 7 7 9 10 9 8 8 7 5 4 4 4 4 6 7 8 8 9 11 10 9 11 15 14 14 16 16 13 11 11 10 9 8 7 7 7 8 9 9 9 11 12 14 15 15 13 13 14 12 10 8 7 7 6 5 6 8 8 6 5 8 10 14 22 24 19 16 13 10 9 9 8 nan
nan 7 6 8 10 13 16 15 13 15 15 14 14 13 11 11 11 12 12 11 9 9 9 9 9 11 11 8 7 9 9 9 11 12 11 10 9 8 7 5 3 2 2 4 4 3 5 6 7 6 5 6 10 13 16 16 17 16 14 11 9 8 8 7 5 5 6 6 6 7 8 10 11 12 13 13 12 15 15 12 10 9 8 8 8 7 8 10 8 5 4 6 7 13 19 19 16 14 12 10 9 9 nan
nan 10 7 7 9 12 14 13 13 12 11 13 16 17 15 13 13 13 14 14 12 11 11 9 8 9 10 8 7 7 8 8 8 9 11 12 13 12 11 8 6 4 4 3 3 2 2 2 4 5 6 5 5 6 12 16 15 15 15 15 13 11 10 9 8 6 6 6 5 5 5 7 9 10 11 12 12 14 16 15 12 11 9 10 10 10 10 10 8 7 5 6 7 9 11 15 16 15 14 12 11 10 nan
nan 13 9 6 8 12 13 12 12 12 10 11 13 13 12 10 10 10 12 11 11 13 14 13 11 9 8 8 7 6 6 6 6 6 8 10 12 13 12 11 11 10 9 7 7 7 5 2 3 4 5 5 4 4 6 10 12 13 14 16 16 13 12 13 12 10 10 9 8 6 5 5 6 7 8 9 10 11 14 15 14 12 10 9 9 10 11 9 9 9 9 10 11 11 10 12 13 14 13 12 11 11 nan
nan nan nan nan nan nan nan nan nan nan nan nan nan nan nan nan nan nan nan nan nan nan nan nan nan nan nan nan nan nan nan nan nan nan nan nan nan nan nan nan nan nan nan nan nan nan nan nan nan nan nan nan nan nan nan nan nan nan nan nan nan nan nan nan nan nan nan nan nan nan nan nan nan nan nan nan nan nan nan nan nan nan nan nan nan nan nan nan nan nan nan nan nan nan nan nan nan nan nan nan nan nan nan
CAPE
1416 1410 1465 1605 1628 1628 1613 1651 1693 1693 1689 1586 1492 1492 1343 1106 1106 929 799 798 798 883 885 761 512 512 286 137 97 97 84 66 65 65 99 159 159 228 247 249 249 171 27 1 nan nan nan nan nan nan nan nan nan nan nan nan nan nan nan nan nan nan nan 4 32 32 31 31 26 26 23 14 8 8 4 4 4 1 nan nan nan nan nan 4 11 11 19 23 27 27 25 21 19 19 16 10 10 5 5 6 6 7 12
1479 1519 1573 1614 1592 1592 1584 1626 1719 1719 1766 1660 1515 1515 1419 1220 1220 997 820 735 735 815 820 780 605 605 419 221 150 150 113 97 61 61 75 105 105 163 206 228 228 103 2 nan nan nan nan nan nan nan nan nan nan nan nan nan nan nan nan nan nan nan nan 19 22 22 20 25 24 24 18 17 13 13 17 18 18 10 nan nan nan nan nan 0 5 5 13 18 21 21 18 17 23 23 24 19 19 8 5 2 2 1 5
1542 1679 1737 1677 1562 1562 1506 1551 1595 1595 1696 1640 1495 1495 1503 1292 1292 1100 879 795 795 839 798 718 664 664 504 346 239 239 168 129 93 93 70 81 81 109 164 179 179 46 nan nan nan nan nan nan nan nan nan nan nan nan nan nan nan nan nan nan nan nan nan 24 22 22 15 11 15 15 12 14 17 17 31 33 33 24 4 nan nan 1 nan 1 4 4 6 11 12 12 11 12 24 24 31 29 29 19 10 2 2 nan 0
1566 1751 1799 1690 1582 1582 1477 1477 1476 1476 1485 1551 1494 1494 1437 1327 1327 1166 933 851 851 811 776 696 605 605 559 423 312 312 234 165 107 107 67 78 78 104 130 100 100 20 nan nan nan nan nan nan nan nan nan nan nan nan nan nan nan nan nan nan nan nan nan 32 18 18 10 13 12 12 14 16 19 19 29 35 35 33 14 3 3 10 13 10 10 10 10 7 6 6 6 7 15 15 28 32 32 33 24 10 10 1 nan
1505 1737 1827 1711 1604 1604 1547 1553 1507 1507 1453 1470 1464 1464 1416 1356 1356 1202 1005 914 914 828 753 636 584 584 507 437 358 358 280 180 121 121 82 75 75 99 101 49 49 0 nan nan nan nan nan nan nan nan nan nan nan nan nan nan nan nan nan nan nan nan 11 26 14 14 11 15 12 12 19 23 18 18 24 35 35 35 20 11 11 21 28 23 22 22 15 8 4 4 2 1 3 3 19 30 30 29 33 23 23 9 0
1446 1725 1813 1643 1530 1530 1472 1475 1432 1432 1432 1375 1435 1435 1386 1280 1280 1136 1037 942 942 854 774 618 526 526 455 385 337 337 268 198 155 155 113 87 87 93 80 23 23 nan nan nan nan nan nan nan nan nan nan nan nan nan nan nan nan nan nan nan nan nan 24 26 12 12 13 18 19 19 28 35 20 20 14 25 25 36 25 19 19 30 40 35 29 29 24 16 7 7 2 0 0 0 2 20 20 27 35 32 32 21 6
1525 1808 1845 1579 1368 1368 1306 1211 1267 1267 1373 1423 1449 1449 1396 1304 1304 1115 1018 926 926 882 794 638 510 510 440 373 286 286 249 211 128 128 125 137 137 125 73 10 10 nan nan nan nan nan nan nan nan nan nan nan nan nan nan nan nan nan nan nan nan 12 40 30 14 14 18 26 26 26 38 49 28 28 11 14 14 27 25 22 22 29 40 45 38 38 31 26 18 18 8 3 nan nan 0 7 7 21 25 32 32 30 21
1650 1840 1778 1518 1309 1309 1109 971 979 979 1111 1245 1473 1473 1421 1326 1326 1230 1041 995 995 948 814 654 460 460 423 363 302 302 227 191 137 137 137 149 149 118 53 3 3 nan nan nan nan nan nan nan nan nan nan nan nan nan nan nan nan nan nan nan nan 15 35 37 20 20 22 23 34 34 52 87 39 39 14 11 11 20 27 24 24 23 25 39 37 37 31 32 26 26 21 13 6 6 2 3 3 12 20 22 22 20 25
1679 1869 1812 1507 1300 1300 1053 872 793 793 921 1113 1472 1472 1450 1347 1347 1255 1066 1064 1064 972 878 669 510 510 405 348 291 291 238 172 122 122 128 162 162 132 51 5 5 1 nan nan nan nan nan nan nan nan nan nan nan nan nan nan nan nan nan nan nan 1 34 43 24 24 25 24 41 41 122 223 41 41 23 11 11 15 32 29 29 22 27 24 32 32 30 28 27 27 27 21 15 15 8 6 6 6 12 17 17 20 20
1565 1748 1743 1492 1289 1289 1131 901 814 814 907 1127 1449 1449 1432 1371 1371 1185 1048 1137 1137 1088 904 729 562 562 416 359 304 304 225 157 123 123 155 175 175 146 65 6 6 2 nan nan nan nan nan nan nan nan nan nan nan nan nan nan nan nan nan nan nan 15 61 46 26 26 25 30 44 44 208 191 48 48 31 14 14 13 28 32 32 26 21 26 24 24 24 23 23 23 20 20 19 19 13 9 9 9 8 12 12 15 16
1451 1580 1671 1520 1366 1366 1257 1104 1007 1007 1012 1245 1427 1427 1460 1304 1304 1159 1069 1122 1122 1071 976 798 583 583 461 401 313 313 260 187 147 147 179 207 207 180 78 9 9 3 nan nan nan nan nan nan nan nan nan nan nan nan nan nan nan nan nan nan nan 56 129 51 33 33 28 33 48 48 237 179 63 63 32 12 12 9 23 33 33 31 20 19 20 20 19 19 17 17 17 18 17 17 14 10 10 9 7 8 8 10 12
1166 1276 1455 1547 1395 1395 1335 1272 1213 1213 1258 1353 1445 1445 1392 1289 1289 1141 1053 1063 1063 1101 1048 869 648 648 518 444 354 354 270 245 223 223 254 263 263 191 90 14 14 3 0 nan nan nan nan nan nan nan nan nan nan nan nan nan nan nan nan 0 0 65 162 63 35 35 33 41 64 64 243 212 59 59 30 11 11 9 26 34 34 31 23 13 12 12 15 15 13 13 11 12 10 10 10 7 7 7 5 6 6 6 7
797 888 956 1163 1517 1517 1410 1491 1477 1477 1424 1520 1470 1470 1370 1224 1224 1126 1088 994 994 1084 1031 939 716 716 581 496 397 397 339 312 345 345 413 358 358 225 102 13 13 1 nan nan nan nan nan nan nan nan nan nan nan nan nan nan nan nan nan 13 13 87 197 83 41 41 37 44 73 73 254 219 59 59 31 16 16 11 26 37 37 35 25 13 7 7 12 13 10 10 8 6 4 4 3 2 2 2 2 3 3 3 4
518 628 363 483 1181 1181 1302 1474 1605 1605 1644 1593 1496 1496 1351 1248 1248 1104 1071 1063 1063 1059 1058 966 828 828 647 557 478 478 450 420 457 457 495 402 402 261 95 12 12 0 nan nan nan nan nan nan nan nan nan nan nan nan nan nan nan nan nan 14 14 133 228 119 47 47 41 48 63 63 146 162 52 52 33 22 22 18 26 40 40 35 26 15 11 11 9 13 12 12 8 3 0 0 nan nan nan nan nan 0 0 1 2
320 157 104 425 842 842 1199 1462 1640 1640 1681 1572 1519 1519 1379 1277 1277 1125 1125 1089 1089 1083 1038 1034 898 898 760 621 536 536 497 502 473 473 445 355 355 222 72 5 5 nan nan nan nan nan nan nan nan nan nan nan nan nan nan nan nan nan nan 13 13 163 285 167 52 52 48 53 57 57 55 77 47 47 33 26 26 24 26 44 44 39 28 19 13 13 13 12 10 10 7 2 nan nan nan nan nan nan nan nan nan nan 0
1 nan 39 326 581 581 1068 1273 1444 1444 1464 1413 1419 1419 1363 1263 1263 1200 1189 1191 1191 1104 1103 1056 964 964 830 692 559 559 480 515 389 389 335 284 284 168 55 nan nan nan nan nan nan nan nan nan nan nan nan nan nan nan nan nan nan nan 0 17 17 173 322 199 53 53 50 59 60 60 49 43 35 35 31 28 28 27 26 45 45 44 33 23 18 18 15 9 6 6 3 1 nan nan nan nan nan nan nan 0 0 0 nan
nan nan nan 350 488 488 712 855 958 958 999 1050 1084 1084 1257 1305 1305 1239 1223 1217 1217 1172 1123 1076 985 985 812 605 479 479 110 185 310 310 235 174 174 104 21 nan nan nan nan nan nan nan nan nan nan nan nan nan nan nan nan nan nan nan 0 23 23 202 306 251 73 73 57 74 77 77 55 42 33 33 30 28 28 27 28 47 47 47 38 26 22 22 16 9 3 3 1 1 1 1 3 5 5 7 6 5 5 3 2
nan nan 207 308 494 494 475 463 480 480 598 691 749 749 965 1164 1164 1191 1132 1253 1253 1158 1105 1011 921 921 714 525 186 186 nan nan nan nan 32 120 120 52 2 nan nan nan nan nan nan nan nan nan nan nan nan nan nan nan nan nan nan nan 2 35 35 211 315 282 113 113 66 82 97 97 61 47 35 35 33 27 27 24 33 55 55 76 40 28 25 25 18 8 2 2 0 3 9 9 12 13 13 13 13 12 12 8 4
nan 16 135 311 545 545 427 300 332 332 430 462 505 505 693 926 926 1068 1044 1117 1117 1105 1050 996 862 862 589 449 59 59 nan nan nan nan nan nan nan nan nan nan nan nan nan nan nan nan nan nan nan nan nan nan nan nan nan nan nan nan 1 50 50 219 353 314 176 176 60 90 119 119 90 50 39 39 33 26 26 22 34 64 64 98 49 25 23 23 18 7 2 2 0 8 17 17 21 19 19 18 17 15 15 12 7
14 159 266 334 338 338 386 367 338 338 310 298 244 244 382 676 676 785 827 889 889 919 904 888 577 577 535 42 nan nan nan nan nan nan nan nan nan nan nan nan nan nan nan nan nan nan nan nan nan nan nan nan nan nan nan nan nan nan 1 75 75 194 350 391 330 330 255 238 262 262 258 134 68 68 53 42 42 32 32 43 43 79 74 40 27 27 19 9 2 2 3 14 23 23 26 26 26 20 20 17 17 9 7
406 467 345 398 381 381 350 241 199 199 227 277 160 160 233 241 241 695 727 758 758 862 892 797 502 502 322 57 nan nan nan nan nan nan nan nan nan nan nan nan nan nan nan nan nan nan nan nan nan nan nan nan nan nan nan nan nan nan nan 47 47 207 337 433 369 369 385 320 320 320 324 227 137 137 83 58 58 47 39 39 39 53 62 45 32 32 23 13 4 4 4 16 22 22 25 26 26 22 19 13 13 6 5
633 649 611 572 529 529 485 274 135 135 189 311 223 223 309 470 470 545 479 636 636 727 795 673 433 433 202 12 nan nan nan nan nan nan nan nan nan nan nan nan nan nan nan nan nan nan nan nan nan nan nan nan nan nan nan nan nan nan nan 25 25 156 300 417 437 437 458 409 387 387 364 310 242 242 164 133 133 122 80 58 58 54 51 43 35 35 26 17 7 7 5 17 20 20 23 23 23 22 17 10 10 8 5
778 765 724 711 696 696 746 636 384 384 292 118 296 296 372 577 577 767 690 584 584 506 565 595 346 346 99 3 nan nan nan nan nan nan nan nan nan nan nan nan nan nan nan nan nan nan nan nan nan nan nan nan nan nan nan nan nan nan nan 8 8 111 293 435 480 480 471 456 432 432 432 406 354 354 252 190 190 206 170 108 108 62 46 44 38 38 30 23 13 13 8 17 22 22 18 20 20 21 17 12 12 8 6
780 830 750 706 721 721 737 790 778 778 494 339 356 356 466 446 446 557 727 610 610 499 497 491 318 318 82 nan nan nan nan nan nan nan nan nan nan nan nan nan nan nan nan nan nan nan nan nan nan nan nan nan nan nan nan nan nan nan nan nan nan 75 261 425 559 559 486 474 509 509 508 514 436 436 339 292 292 272 223 190 190 102 41 45 38 38 34 28 18 18 11 17 23 23 18 15 15 18 16 13 13 9 6
713 795 718 613 686 686 698 750 837 837 516 507 553 553 669 396 396 319 544 683 683 630 526 487 294 294 109 2 nan nan nan nan nan nan nan nan nan nan nan nan nan nan nan nan nan nan nan nan nan nan nan nan nan nan nan nan nan nan nan nan nan 49 229 447 577 577 532 491 498 498 558 594 548 548 464 376 376 311 248 248 248 172 65 37 36 36 35 30 24 24 16 18 26 26 20 16 16 14 13 12 12 10 8
511 696 686 555 593 593 662 650 732 732 718 710 732 732 632 500 500 361 407 520 520 695 658 540 315 315 139 17 nan nan nan nan nan nan nan nan nan nan nan nan nan nan nan nan nan nan nan nan nan nan nan nan nan nan nan nan nan nan nan nan nan 36 177 467 631 631 579 506 459 459 531 586 621 621 573 481 481 375 332 299 299 229 149 50 34 34 33 31 27 27 20 19 27 27 23 18 18 15 12 11 11 9 8
480 631 652 602 560 560 627 614 603 603 681 642 699 699 568 495 495 544 526 487 487 541 573 560 405 405 208 51 nan nan nan nan nan nan nan nan nan nan nan nan nan nan nan nan nan nan nan nan nan nan nan nan nan nan nan nan nan nan nan nan nan 12 149 397 685 685 696 552 449 449 458 517 640 640 678 595 595 536 446 364 364 290 207 101 44 44 35 29 26 26 21 19 26 26 25 21 21 14 13 10 10 9 8
562 627 644 685 666 666 623 611 597 597 585 548 607 607 657 441 441 475 513 693 693 571 441 315 428 428 330 122 25 25 nan nan nan nan nan nan nan nan nan nan nan nan nan nan nan nan nan nan nan nan nan nan nan nan nan nan nan nan nan nan nan nan 83 358 706 706 753 602 438 438 367 423 568 568 698 701 701 669 598 483 483 383 261 179 65 65 36 27 26 26 21 19 25 25 27 23 23 16 12 9 9 7 9
372 523 612 651 630 630 564 607 593 593 553 492 520 520 595 611 611 564 512 584 584 804 677 434 430 430 453 240 89 89 10 nan nan nan nan nan nan nan nan nan nan nan nan nan nan nan nan nan nan nan nan nan nan nan nan nan nan nan nan nan nan nan 48 271 593 593 840 684 483 483 356 359 474 474 624 722 722 751 705 601 601 453 324 212 107 107 51 31 24 24 23 20 22 22 25 24 24 18 12 8 8 7 8
105 245 381 598 680 680 561 497 564 564 497 462 463 463 480 580 580 655 710 689 689 763 688 558 510 510 498 317 143 143 54 11 nan nan nan nan nan nan nan nan nan nan nan nan nan nan nan nan nan nan nan nan nan nan nan nan nan nan nan nan nan nan 2 147 456 456 895 798 589 589 399 326 382 382 554 679 679 806 829 671 671 543 365 246 159 159 83 49 31 31 24 21 21 21 24 23 23 19 12 8 8 9 9
103 138 103 189 549 549 796 609 534 534 468 434 406 406 350 414 414 566 698 795 795 820 720 585 508 508 497 357 174 174 83 40 10 10 nan nan nan nan nan nan nan nan nan nan nan nan nan nan nan nan nan nan nan nan nan nan nan nan nan nan nan nan nan 47 290 290 774 886 764 764 528 370 398 398 485 668 668 830 925 785 785 636 452 282 192 192 128 80 51 51 35 24 22 22 23 23 23 20 15 11 11 12 11
66 156 155 141 239 239 511 792 623 623 490 404 374 374 296 313 313 428 605 711 711 801 690 588 492 492 457 377 188 188 97 67 32 32 3 nan nan nan nan nan nan nan nan nan nan nan nan nan nan nan nan nan nan nan nan nan nan nan nan nan nan nan nan nan 112 112 473 836 880 880 757 523 445 445 448 567 567 759 1030 917 917 748 546 366 249 249 184 124 95 95 56 35 23 23 23 24 24 22 19 13 13 13 13
30 59 196 222 234 234 247 499 816 816 694 560 492 492 405 350 350 420 542 642 642 688 705 632 535 535 447 369 219 219 99 57 48 48 16 4 4 nan nan nan nan nan nan nan nan nan nan nan nan nan nan nan nan nan nan nan nan nan nan nan nan nan nan nan 5 5 196 532 762 762 874 718 546 546 494 499 499 684 988 1064 1064 956 761 548 364 364 244 182 127 127 86 48 35 35 24 25 25 26 25 20 20 16 15
15 16 32 135 186 186 154 188 360 360 442 535 581 581 539 470 470 460 561 637 637 684 702 690 615 615 495 387 252 252 127 54 61 61 35 14 14 6 nan nan nan nan nan nan nan nan nan nan nan nan nan nan nan nan nan nan nan nan nan nan nan nan nan nan nan nan 12 202 531 531 861 903 711 711 596 515 515 578 805 1127 1127 1139 971 749 532 532 357 240 182 182 131 78 41 41 41 29 29 28 27 25 25 21 16
19 15 12 21 98 98 71 101 215 215 177 257 269 269 303 390 390 402 443 580 580 692 709 662 621 621 552 405 288 288 186 77 63 63 46 26 26 11 nan nan nan nan nan nan nan nan nan nan nan nan nan nan nan nan nan nan nan nan nan nan nan nan nan nan nan nan nan 28 278 278 653 894 862 862 703 616 616 591 661 938 938 1078 1146 1001 782 782 497 326 217 217 183 123 68 68 50 41 41 30 32 29 29 25 19
22 21 20 15 15 15 36 44 144 144 238 219 123 123 74 120 120 187 418 560 560 608 657 543 504 504 405 392 326 326 201 127 70 70 47 34 34 13 3 nan nan nan nan nan nan nan nan nan nan nan nan nan nan nan nan nan nan nan nan nan nan nan nan nan nan nan nan nan 68 68 386 716 855 855 789 697 697 611 588 785 785 927 1042 1157 996 996 701 438 272 272 215 148 103 103 79 58 58 46 37 33 33 30 23
15 21 24 21 18 18 24 13 12 12 32 125 106 106 57 118 118 171 335 354 354 148 181 308 359 359 352 337 342 342 255 139 81 81 65 44 44 16 1 nan nan nan nan nan nan nan nan nan nan nan nan nan nan nan nan nan nan nan nan nan nan nan nan nan nan nan nan nan nan nan 158 461 710 710 745 717 717 630 579 647 647 778 959 1131 1138 1138 874 604 385 385 270 192 142 142 98 78 78 61 50 35 35 30 27
12 14 20 21 20 20 22 26 13 13 19 29 31 31 37 88 88 151 151 33 33 14 47 102 193 193 356 318 288 288 223 148 91 91 75 44 44 21 6 nan nan nan nan nan nan nan nan nan nan nan nan nan nan nan nan nan nan nan nan nan nan nan nan nan nan nan nan nan nan nan 11 203 457 457 700 736 736 678 626 634 634 761 901 1073 1160 1160 979 730 548 548 407 264 194 194 135 97 97 77 71 41 41 35 29
12 12 17 26 12 12 10 18 24 24 26 15 25 25 29 31 31 83 63 25 25 16 28 46 50 50 129 283 228 228 175 151 116 116 73 51 51 31 16 nan nan nan nan nan nan nan nan nan nan nan nan nan nan nan nan nan nan nan nan nan nan nan nan nan nan nan nan nan nan nan nan 41 216 216 476 657 657 727 673 682 682 848 1022 1163 1160 1160 1066 887 723 723 537 374 285 285 200 135 135 124 112 89 89 45 33
12 12 16 20 23 23 34 12 7 7 25 19 19 19 24 9 9 56 92 62 62 25 28 25 22 22 20 59 145 145 201 152 138 138 88 49 49 45 37 6 6 nan nan nan nan nan nan nan nan nan nan nan nan nan nan nan nan nan nan nan nan nan nan nan nan nan nan nan nan nan nan nan 79 79 304 552 552 679 720 730 730 902 1078 1205 1231 1231 1157 1014 870 870 708 528 397 397 302 219 219 185 168 167 167 96 48
9 14 16 17 19 19 20 16 17 17 33 30 17 17 9 13 13 62 136 85 85 44 23 20 22 22 7 14 24 24 70 129 180 180 168 91 91 65 59 29 29 8 2 1 1 1 nan nan nan nan nan nan nan nan nan nan nan nan nan nan nan nan nan nan nan nan nan nan nan nan nan nan 19 19 151 339 339 543 671 777 777 818 957 1177 1225 1225 1193 1137 988 988 823 668 515 515 388 298 298 257 236 253 253 194 103
5 13 18 17 15 15 13 12 15 15 30 34 31 31 15 13 13 41 82 83 83 66 14 15 22 22 13 9 14 14 16 43 48 48 78 108 108 127 75 61 61 33 18 11 3 3 nan nan nan nan nan nan nan nan nan nan nan nan nan nan nan nan nan nan nan nan nan nan nan nan nan nan nan nan 56 189 189 374 507 664 664 671 805 978 1090 1090 1091 1101 1037 1037 908 747 653 653 539 434 434 340 295 318 318 292 184
nan nan nan 3 9 9 11 14 19 19 24 26 30 30 33 34 34 25 24 18 18 26 29 17 21 21 28 36 23 23 15 10 4 4 1 1 1 2 28 51 51 42 12 1 nan nan nan nan nan nan nan nan nan nan nan nan nan nan nan nan nan nan nan nan nan nan nan nan nan nan nan nan nan nan nan nan nan 36 93 104 104 115 237 501 769 769 967 1011 1056 1056 1037 938 904 904 838 717 717 569 492 443 443 448 349
nan nan nan nan 0 0 8 11 22 22 27 27 26 26 19 17 17 17 14 11 11 19 19 6 10 10 29 39 33 33 20 13 4 4 nan 8 8 7 7 22 22 23 2 nan nan nan nan nan nan nan nan nan nan nan nan nan nan nan nan nan nan nan nan nan nan nan nan nan nan nan nan nan nan nan nan nan nan nan nan nan nan 15 107 335 627 627 811 944 986 986 1043 1053 1062 1062 1021 856 856 662 584 531 531 510 411
0 nan 1 nan nan nan 2 14 20 20 24 24 19 19 18 14 14 11 12 12 12 12 18 7 2 2 11 23 29 29 17 12 14 14 2 11 11 14 9 4 4 6 2 nan nan nan nan nan nan nan nan nan nan nan nan nan nan nan nan nan nan nan nan nan nan nan nan nan nan nan nan nan nan nan nan nan nan nan nan nan nan nan 38 205 472 472 640 762 891 891 1015 1137 1135 1135 1182 1007 1007 807 683 627 627 572 497
0 0 5 0 nan nan nan 2 25 25 28 26 13 13 17 19 19 15 13 11 11 12 14 15 18 18 23 16 20 20 20 23 37 37 20 19 19 20 20 6 6 1 nan nan nan nan nan nan nan nan nan nan nan nan nan nan nan nan nan nan nan nan nan nan nan nan nan nan nan nan nan nan nan nan nan nan nan nan nan nan nan nan nan 83 268 268 460 515 688 688 918 1072 1173 1173 1226 1134 1134 950 760 695 695 674 562
0 0 nan nan nan nan nan nan 3 3 17 29 26 26 23 26 26 25 13 13 13 13 13 15 17 17 19 35 44 44 44 44 47 47 33 30 30 28 40 19 19 3 nan nan nan nan nan nan nan nan nan nan nan nan nan nan nan nan nan nan nan nan nan nan nan nan nan nan nan nan nan nan nan nan nan nan nan nan nan nan nan nan nan nan 88 88 219 237 453 453 771 1010 1195 1195 1238 1224 1224 1083 889 807 807 755 635
0 1 1 7 7 7 1 nan nan nan 0 15 19 19 22 28 28 29 25 23 23 19 20 17 12 12 11 12 35 35 63 83 77 77 54 35 35 21 35 30 30 16 nan nan nan nan nan nan nan nan nan nan nan nan nan nan nan nan nan nan nan nan nan nan nan nan nan nan nan nan nan nan nan nan nan nan nan nan nan nan nan nan nan nan nan nan 30 30 183 183 552 958 1142 1142 1182 1192 1192 1098 972 897 897 834 711
nan 0 nan nan nan nan 3 4 3 3 nan 0 20 20 14 24 24 23 21 8 8 18 11 17 11 11 10 10 7 7 15 48 65 65 51 14 14 4 2 23 23 30 5 nan nan nan nan nan nan nan nan nan nan nan nan nan nan nan nan nan nan nan nan nan nan nan nan nan nan nan nan nan nan nan nan nan nan nan nan nan nan nan nan nan nan nan nan nan 26 26 275 779 1053 1053 1169 1172 1172 1072 979 918 918 855 825
nan 0 0 nan nan nan 1 8 19 19 10 11 23 23 21 14 14 19 5 nan nan 3 16 20 11 11 9 9 3 3 2 4 26 26 24 8 8 2 nan 1 1 7 8 nan nan nan nan nan nan nan nan nan nan nan nan nan nan nan nan nan nan nan nan nan nan nan nan nan nan nan nan nan nan nan nan nan nan nan nan nan nan nan nan nan nan nan nan nan nan nan 63 476 895 895 1042 1082 1082 1015 925 871 871 875 881
nan nan 0 nan nan nan 5 10 30 30 45 46 35 35 5 4 4 19 12 6 6 1 18 23 22 22 17 7 nan nan nan 0 10 10 3 1 1 nan nan nan nan 2 2 nan nan nan nan nan nan nan nan nan nan nan nan nan nan nan nan nan nan nan nan nan nan nan nan nan nan nan nan nan nan nan nan nan nan nan nan nan nan nan nan nan nan nan nan nan nan nan 10 198 513 513 716 917 917 995 901 785 785 862 935
nan nan nan 0 0 0 nan 10 14 14 27 53 42 42 21 0 0 12 18 7 7 2 15 3 7 7 23 17 3 3 nan nan 7 7 0 nan nan nan nan 5 5 3 1 1 nan nan nan nan nan nan nan nan nan nan nan nan nan nan nan nan nan nan nan nan nan nan nan nan nan nan nan nan nan nan nan nan nan nan nan nan nan nan nan nan nan nan nan nan nan nan nan 26 239 239 322 606 606 864 906 819 819 804 984
nan nan nan nan nan nan nan 2 9 9 24 40 40 40 36 17 17 8 nan 8 8 nan 10 6 4 4 6 27 14 14 3 3 8 8 1 nan nan nan 8 12 12 4 nan 6 0 0 nan nan nan nan nan nan nan nan nan nan nan nan nan nan nan nan nan nan nan nan nan nan nan nan nan nan nan nan nan nan nan nan nan nan nan nan nan nan nan nan nan nan nan nan nan nan 65 65 131 337 337 683 914 821 821 834 1054
nan nan nan nan nan nan nan nan nan nan 6 22 33 33 33 20 20 9 0 1 1 nan 5 1 3 3 1 2 nan nan 28 23 18 18 7 3 3 4 18 13 13 5 3 12 12 12 nan nan nan nan nan nan nan nan nan nan nan nan nan nan nan nan nan nan nan nan nan nan nan nan nan nan nan nan nan nan nan nan nan nan nan nan nan nan nan nan nan nan nan nan nan nan nan nan nan 241 241 537 798 863 863 869 1019
2 3 1 0 nan nan nan nan nan nan nan 6 17 17 27 36 36 33 23 2 2 nan nan 4 4 4 5 nan nan nan nan 3 43 43 40 12 12 17 22 19 19 11 7 15 19 19 0 nan nan nan nan nan nan nan nan nan nan nan nan nan nan nan nan nan nan nan nan nan nan nan nan nan nan nan nan nan nan nan nan nan nan nan nan nan nan nan nan nan nan nan nan nan nan nan nan 126 126 307 645 817 817 845 918
1 2 2 2 1 1 0 nan nan nan nan 3 6 6 21 31 31 30 36 16 16 10 3 7 10 10 3 nan nan nan nan nan 4 4 46 52 52 22 33 38 38 29 17 19 8 8 1 nan nan nan nan nan nan nan nan nan nan nan nan nan nan nan nan nan nan nan nan nan nan nan nan nan nan nan nan nan nan nan nan nan nan nan nan nan nan nan nan nan nan nan nan nan nan nan nan nan nan 101 503 722 722 803 861
1 2 1 1 1 1 1 1 nan nan 0 3 4 4 10 8 8 5 3 12 12 54 28 21 19 19 2 nan nan nan nan nan nan nan nan 25 25 30 44 27 27 40 35 22 12 12 4 4 10 10 nan nan nan nan nan nan nan nan nan nan nan nan nan nan nan nan nan nan nan nan nan nan nan nan nan nan nan nan nan nan nan nan nan nan nan nan nan nan nan nan nan nan nan nan nan nan nan 10 335 656 656 765 783
1 1 1 1 1 1 1 2 6 6 19 8 2 2 0 0 0 1 nan 0 0 3 43 52 50 50 30 2 1 1 nan nan nan nan 0 nan nan 11 23 38 38 30 33 28 18 18 10 12 18 18 6 nan nan nan nan nan nan nan nan nan nan nan nan nan nan nan nan nan nan nan nan nan nan nan nan nan nan nan nan nan nan nan nan nan nan nan nan nan nan nan nan nan nan nan nan nan nan nan 250 532 532 696 715
1 2 1 1 1 1 1 2 2 2 4 6 16 16 6 21 21 26 19 nan nan nan nan 5 52 52 65 61 43 43 33 23 22 22 24 31 31 19 13 9 9 37 45 30 17 17 21 24 23 23 9 11 nan nan nan nan nan nan nan nan nan nan nan nan nan nan nan nan nan nan nan nan nan nan nan nan nan nan nan nan nan nan nan nan nan nan nan nan nan nan nan nan nan nan nan nan nan nan 132 363 363 517 621
1 2 1 1 1 1 1 2 1 1 2 2 4 4 5 4 4 6 31 45 45 38 2 2 5 5 17 44 46 46 46 4 nan nan 9 53 53 54 33 27 27 37 42 46 41 41 42 44 39 39 34 30 5 5 nan nan nan nan nan nan nan nan nan nan nan nan nan nan nan nan nan nan nan nan nan nan nan nan nan nan nan nan nan nan nan nan nan nan nan nan nan nan nan nan nan nan nan nan 44 257 257 376 500
0 2 1 1 1 1 1 2 1 1 2 2 2 2 2 2 2 3 3 3 3 7 45 31 3 3 5 16 9 9 7 3 5 5 3 8 8 29 56 60 60 55 43 50 52 52 52 48 40 40 39 30 29 29 6 nan nan nan nan nan nan nan nan nan nan nan nan nan nan nan nan nan nan nan nan nan nan nan nan nan nan nan nan nan nan nan nan nan nan nan nan nan nan nan nan nan nan nan 30 186 186 242 383